Regional Weather Roundup
Issued by NWS Midland/Odessa, TX

Skip options and go directly to product.
Home | Oldest Version | Previous Version | Current Version | All | Graphics & Text | Save Text | Print | Product List | Glossary On

Skip product version selection by date and time.   
748
ASUS44 KMAF 101510
RWRMAF
MIDLAND AREA WEATHER ROUNDUP
NATIONAL WEATHER SERVICE MIDLAND TX
900 AM CST WED FEB 10 2016

...IN SOUTHWEST TEXAS AND SOUTHEAST NEW MEXICO...

CITY           SKY/WX    TMP DP  RH WIND       PRES   REMARKS
ALPINE         SUNNY     52  17  24 SW8       30.44S
ANDREWS        FAIR      44  24  44 CALM      30.34R
ARTESIA        CLOUDY    36  25  64 N8        30.37R WCI  29
BIG SPRING     SUNNY     37  24  58 CALM      30.37R
CARLSBAD       CLOUDY    37  23  56 N3        30.35R
DRYDEN           N/A     53  23  31 W3        30.34R
FORT STOCKTON  SUNNY     47  24  40 SW9       30.36R
GUAD PASS      CLOUDY    42  19  39 SW12      30.41R WCI  36
HOBBS          SUNNY     45  25  45 SW8       30.35R
MARFA          CLOUDY    42  18  37 N3        30.42S
MIDLAND AIRPK  SUNNY     46  25  44 W3        30.35R
MIDLAND INTL   SUNNY     45  29  53 W3        30.34R
ODESSA         SUNNY     44  25  47 W3        30.34S
PECOS          SUNNY     37  24  59 CALM      30.37R
PRESIDIO       FAIR      46  19  34 CALM      30.39S
SEMINOLE       SUNNY     44  24  46 W7        30.34S WCI  40
SNYDER           N/A     38  25  59 SW8       30.33R WCI  32
WINK           SUNNY     38  22  52 N5        30.35R WCI  34
$$
...OTHER STATIONS IN TEXAS...

CITY           SKY/WX    TMP DP  RH WIND       PRES   REMARKS
ABILENE        SUNNY     47  30  51 S7        30.32S
AMARILLO       SUNNY     48  23  37 W14       30.25S
AUSTIN         SUNNY     51  34  52 CALM      30.39R
BROWNSVILLE    SUNNY     60  43  53 SW8       30.39R
CORPUS CHRISTI MOSUNNY   57  36  45 NW7       30.38R
DALLAS FTW     MOSUNNY   43  30  60 S5        30.33R
DEL RIO        SUNNY     49  33  54 CALM      30.36R
EL PASO        PTSUNNY   41  20  43 N8        30.39R WCI  36
HOUSTON INT    MOSUNNY   51  32  48 SE6       30.41R
LUBBOCK        MOSUNNY   36  21  54 W12       30.30S WCI  28
SAN ANGELO     SUNNY     40  25  55 W3        30.36R
SAN ANTONIO    MOSUNNY   53  30  41 NE8       30.39R
WACO           SUNNY     43  31  62 SW6       30.37S WCI  39
WICHITA FALLS  NOT AVBL
$$
...OTHER LOCATIONS IN NEW MEXICO...

CITY           SKY/WX    TMP DP  RH WIND       PRES   REMARKS
ALAMAGORDO     CLOUDY    41  18  38 NE3       30.41R
ALBUQUERQUE    CLOUDY    34  19  54 NW8       30.44R WCI  27
CANNON AFB     CLOUDY    44  20  39 W15       30.30S WCI  37
CLOVIS         CLOUDY    45  23  42 W15       30.31R WCI  38
HOLLOMAN AFB   CLOUDY    33  16  51 CALM      30.40R
ROSWELL        CLOUDY    32  19  58 N5        30.36R WCI  27
RUIDOSO          N/A     41  14  33 W6        30.44R WCI  37
SANTA FE       CLOUDY    31  17  56 N16       30.42R WCI  20
TRUTH OR CONSE SUNNY     39  19  44 NW3       30.42R
TUCUMCARI      CLOUDY    39  22  50 W9        30.27R WCI  33
$$

USA.gov is the U.S. government's official web portal to all federal, state and local government web resources and services.